{"data":{"norad_id":59086,"epoch":"2026-05-24T23:17:29.709600Z","epoch_age_seconds":77763,"freshness":"FRESH","line1":"1 59086U 24041N   26144.97048275 -.00000258  00000+0  15669-6 0  9996","line2":"2 59086  42.9991 240.2538 0001340 273.1071  86.9628 15.27577841125988","mean_motion":15.27577841,"eccentricity":0.000134,"inclination_deg":42.9991,"raan_deg":240.2538,"arg_perigee_deg":273.1071,"mean_anomaly_deg":86.9628,"bstar":1.5669e-7,"rev_number":12598,"period_min":94.266881945429,"perigee_km":482.13616106681,"apogee_km":483.97496067312,"semimajor_km":6861.19256087,"source":"CELESTRAK","updated_at":"2026-05-25T13:38:18.830174Z"}}